Location: Los Gatos B&B
(42.6926°N, 77.0646°W)
Time: 13:14:41
(UTC-05:00)

Amateur Radio Satellites - All Passes

Search period start: 22 January 2017 12:44
Search period end: 23 January 2017 12:44
Location: Los Gatos B&B, 42.6926°N, 77.0646°W

Satellite Date Start Highest point End Downlink Frequencies (MHz)
Time Altitude Azimuth
ESTCUBE 1 22 Jan 12:44:45 12:48:24 24° 294° (WNW) 12:52:00 437.505/2401.250
VELOX 1 22 Jan 12:45:58 12:50:18 58° 287° (WNW) 12:54:36 145.980
SPROUT 22 Jan 12:58:27 13:02:37 54° 287° (WNW) 13:06:46 437.525
AO-7 22 Jan 13:00:16 13:06:35 25° 52° (NE) 13:12:54 29.400- 29.500
UKube-1 22 Jan 13:05:28 13:09:48 79° 103° (ESE) 13:14:05 .
DX 1 22 Jan 13:10:48 13:15:07 66° 286° (WNW) 13:19:24 434.975-435.025
Oscar 19 22 Jan 13:16:00 13:21:01 48° 261° (W) 13:26:03 437.125/150
AIST 1 22 Jan 13:20:27 13:24:35 43° 93° (E) 13:28:43
Cosmos 2504 22 Jan 13:23:08 13:29:29 24° 82° (E) 13:35:34 435.465 / 435.565
Cosmos 2491 22 Jan 13:23:26 13:32:15 82° 265° (W) 13:41:04 435.465 / 435.565
CUBEBUG 1 22 Jan 13:28:23 13:30:41 14° 298° (WNW) 13:32:59 437.445
YUBILEINY 22 Jan 13:29:23 13:37:41 49° 88° (E) 13:46:03 435.215
AO-85 22 Jan 13:40:48 13:45:32 83° 304° (WNW) 13:49:54 145.980
Gurwin Techsat 1B 22 Jan 13:47:46 13:52:51 46° 261° (W) 13:57:59 435.225
AISAT 22 Jan 13:50:48 13:52:57 13° 299° (WNW) 13:55:05 437.250
DANDE 22 Jan 13:53:55 14:01:14 39° 71° (ENE) 14:08:54 436.750
ITUPSAT 1 22 Jan 13:54:02 13:57:11 17° 92° (E) 14:00:19 437.325
ITAMSAT 1 22 Jan 14:03:36 14:08:37 54° 71° (ENE) 14:13:40 435.822/435.867
TISAT 1 22 Jan 14:18:32 14:22:34 49° 288° (WNW) 14:26:36 437.305
CUSAT 1 22 Jan 14:24:45 14:32:37 62° 266° (W) 14:39:43 437.405
BEESAT 22 Jan 14:26:12 14:30:37 36° 98° (E) 14:35:01 436.000
SWISSCUBE 22 Jan 14:27:58 14:32:33 42° 99° (E) 14:37:05 437.505
UKube-1 22 Jan 14:44:01 14:45:11 11° 300° (WNW) 14:46:21 .
BRITE-PL 22 Jan 14:47:23 14:50:38 16° 61° (ENE) 14:53:51 437.365/2234.400
SO-50 22 Jan 14:48:41 14:52:06 20° 41° (NE) 14:55:28 436.795
AO-7 22 Jan 14:50:00 14:58:23 85° 252° (WSW) 15:06:50 29.400- 29.500
AIST 1 22 Jan 14:59:34 15:02:24 17° 290° (WNW) 15:05:15
BEESAT 3 22 Jan 15:12:40 15:16:01 28° 115° (ESE) 15:19:25 437.485
Cosmos 2504 22 Jan 15:13:29 15:22:07 74° 279° (W) 15:30:15 435.465 / 435.565
Cosmos 2491 22 Jan 15:22:46 15:27:38 16° 285° (WNW) 15:32:31 435.465 / 435.565
AO-85 22 Jan 15:24:16 15:26:32 14° 322° (NW) 15:28:45 145.980
YUBILEINY 22 Jan 15:26:33 15:34:38 39° 289° (WNW) 15:42:48 435.215
ITUPSAT 1 22 Jan 15:30:38 15:35:19 53° 288° (WNW) 15:40:00 437.325
O/OREOS (USA 219) 22 Jan 15:32:27 15:36:57 65° 65° (ENE) 15:41:26 437.305
DANDE 22 Jan 15:36:29 15:44:06 52° 268° (W) 15:52:05 436.750
MOZHAYETS 4 22 Jan 15:38:36 15:43:14 64° 101° (ESE) 15:47:50
ITAMSAT 1 22 Jan 15:44:47 15:48:24 19° 268° (W) 15:52:04 435.822/435.867
M-CUBED/EXP-1 PRIME 22 Jan 15:57:15 15:59:53 22° 101° (E) 16:02:27 437.505
KKS-1 22 Jan 16:01:48 16:05:50 33° 97° (E) 16:09:50 437.445
BEESAT 2 22 Jan 16:02:05 16:05:48 41° 117° (ESE) 16:09:35 435.950
BEESAT 22 Jan 16:04:17 16:08:13 26° 294° (WNW) 16:12:09 436.000
SWISSCUBE 22 Jan 16:06:21 16:10:04 23° 296° (WNW) 16:13:46 437.505
HORYU 2 22 Jan 16:10:05 16:14:03 34° 69° (ENE) 16:18:02 437.375
CUSAT 1 22 Jan 16:10:29 16:12:50 12° 286° (WNW) 16:15:10 437.405
GOMX 1 22 Jan 16:15:37 16:20:30 37° 70° (ENE) 16:25:10 467.674
Cubesat XI-IV 22 Jan 16:16:10 16:19:41 18° 60° (ENE) 16:23:11 437.490
NOAA 15 22 Jan 16:16:30 16:20:11 19° 61° (ENE) 16:23:52 137.62
BRITE-PL 22 Jan 16:22:40 16:28:24 85° 257° (WSW) 16:34:01 437.365/2234.400
SO-50 22 Jan 16:28:30 16:32:56 59° 240° (WSW) 16:37:18 436.795
CUBESAT XI-V 22 Jan 16:30:48 16:35:06 35° 96° (E) 16:39:21 437.345
AUBIESAT-1 22 Jan 16:31:23 16:34:39 48° 105° (ESE) 16:37:50 437.475
NOAA 18 22 Jan 16:39:33 16:43:07 18° 59° (ENE) 16:46:41 137.9125
DOVE 4 22 Jan 16:43:33 16:47:38 27° 68° (ENE) 16:51:32 437.250
AO-7 22 Jan 16:47:08 16:52:17 17° 271° (W) 16:57:27 29.400- 29.500
STARS 22 Jan 16:48:16 16:52:30 47° 100° (E) 16:56:43 437.465
BEESAT 3 22 Jan 16:50:12 16:53:35 28° 313° (NW) 16:57:02 437.485
CUTE-I 22 Jan 17:10:04 17:15:12 52° 71° (ENE) 17:20:22 437.470
Cosmos 2504 22 Jan 17:12:21 17:16:54 15° 300° (WNW) 17:21:20 435.465 / 435.565
O/OREOS (USA 219) 22 Jan 17:13:51 17:15:46 13° 262° (W) 17:17:41 437.305
LilacSat-2 22 Jan 17:16:44 17:20:26 58° 75° (ENE) 17:24:10 437.200
MOZHAYETS 4 22 Jan 17:17:15 17:19:52 15° 298° (WNW) 17:22:28
CANX-2 22 Jan 17:29:56 17:31:13 11° 61° (ENE) 17:32:30 2200.000
M-CUBED/EXP-1 PRIME 22 Jan 17:31:48 17:34:18 20° 298° (WNW) 17:36:46 437.505
Cosmos 2499 22 Jan 17:33:14 17:36:07 12° 76° (ENE) 17:38:57 435.465 / 435.565
KKS-1 22 Jan 17:38:40 17:42:13 24° 294° (WNW) 17:45:46 437.445
BEESAT 2 22 Jan 17:40:40 17:43:45 21° 316° (NW) 17:46:53 435.950
HO-68 22 Jan 17:45:02 17:51:13 32° 61° (ENE) 17:57:25 435.675
HORYU 2 22 Jan 17:47:09 17:50:39 23° 265° (W) 17:54:11 437.375
Cubesat XI-IV 22 Jan 17:53:56 17:59:12 66° 258° (WSW) 18:04:31 437.490
GOMX 1 22 Jan 17:53:57 17:58:34 29° 265° (W) 18:03:01 467.674
NOAA 15 22 Jan 17:54:14 17:59:28 61° 259° (W) 18:04:45 137.62
CINEMA 3 22 Jan 17:54:54 17:58:44 31° 70° (ENE) 18:02:27 145.822/145.860
BRITE-PL 22 Jan 18:05:31 18:07:32 12° 273° (W) 18:09:32 437.365/2234.400
AUBIESAT-1 22 Jan 18:08:02 18:08:39 10° 303° (WNW) 18:09:17 437.475
CUBESAT XI-V 22 Jan 18:08:29 18:12:18 25° 294° (WNW) 18:16:06 437.345
NOAA 18 22 Jan 18:17:42 18:23:12 71° 257° (WSW) 18:28:41 137.9125
GONETS M04 22 Jan 18:19:17 18:25:45 24° 80° (E) 18:32:15
DOVE 4 22 Jan 18:20:43 18:25:12 34° 263° (W) 18:29:29 437.250
AIST 2 22 Jan 18:21:41 18:25:06 26° 114° (ESE) 18:28:35 435.215
STARS 22 Jan 18:25:37 18:28:29 17° 296° (WNW) 18:31:20 437.465
CUTE 1.7 + AOD 2 22 Jan 18:32:40 18:36:41 43° 72° (ENE) 18:40:45 437.475
CUBEBUG 2 22 Jan 18:34:04 18:37:01 19° 66° (ENE) 18:39:57 437.445
CUTE-I 22 Jan 18:51:39 18:55:32 20° 267° (W) 18:59:27 437.470
UWE-3 22 Jan 18:57:00 19:00:08 21° 67° (ENE) 19:03:17 435.000/436.395/437.385
CANX-2 22 Jan 19:02:11 19:06:26 75° 259° (W) 19:10:44 2200.000
SEEDS 22 Jan 19:08:01 19:12:13 72° 75° (ENE) 19:16:28 437.485
COMPASS 1 22 Jan 19:08:47 19:12:48 48° 73° (ENE) 19:16:52 437.405
ZACube-1 22 Jan 19:10:25 19:13:15 18° 65° (ENE) 19:16:06 437.345
STRAND 1 22 Jan 19:14:23 19:19:23 49° 99° (E) 19:24:21 437.568
AAUSAT CUBESAT 2 22 Jan 19:17:31 19:21:31 45° 72° (ENE) 19:25:32 437.432
Cosmos 2499 22 Jan 19:19:37 19:27:55 71° 94° (E) 19:35:38 435.465 / 435.565
HO-68 22 Jan 19:31:36 19:38:36 54° 259° (W) 19:45:40 435.675
CINEMA 3 22 Jan 19:32:22 19:35:53 23° 265° (W) 19:39:20 145.822/145.860
Oscar 11 22 Jan 19:40:54 19:44:45 33° 70° (ENE) 19:48:39 145.826/435.025
AIST 2 22 Jan 19:59:42 20:03:27 33° 312° (NW) 20:07:16 435.215
CUBEBUG 2 22 Jan 20:09:32 20:13:24 37° 263° (W) 20:17:15 437.445
CUTE 1.7 + AOD 2 22 Jan 20:09:58 20:12:44 17° 268° (W) 20:15:31 437.475
GONETS M04 22 Jan 20:12:56 20:21:38 74° 280° (W) 20:30:26
DELFI C3 22 Jan 20:13:05 20:16:19 24° 68° (ENE) 20:19:35 145.870
FUNcube-1 22 Jan 20:20:24 20:24:31 84° 256° (WSW) 20:28:43 145.935
UWE-3 22 Jan 20:32:41 20:36:25 32° 263° (W) 20:40:11 435.000/436.395/437.385
AO-85 22 Jan 20:32:43 20:34:40 13° 38° (NE) 20:36:36 145.980
HUMSAT D 22 Jan 20:34:08 20:37:25 23° 67° (ENE) 20:40:43 437.325/437.525
PRISM 22 Jan 20:38:05 20:40:49 17° 93° (E) 20:43:32 437.425
ZACube-1 22 Jan 20:45:22 20:49:15 39° 262° (W) 20:53:11 437.345
COMPASS 1 22 Jan 20:46:12 20:48:37 15° 269° (W) 20:51:03 437.405
STRAND 1 22 Jan 20:54:18 20:58:13 22° 297° (WNW) 21:02:08 437.568
AAUSAT CUBESAT 2 22 Jan 20:54:43 20:57:13 15° 269° (W) 20:59:44 437.432
RS-15 22 Jan 20:58:00 21:03:07 14° 93° (E) 21:08:17 29.354- 29.394
Cosmos 2499 22 Jan 21:15:12 21:21:39 25° 293° (WNW) 21:27:48 435.465 / 435.565
Oscar 11 22 Jan 21:17:32 21:20:56 23° 266° (W) 21:24:23 145.826/435.025
ISS 22 Jan 21:35:32 21:38:47 71° 142° (SE) 21:42:02 145.825
JAS-2 22 Jan 21:36:51 21:41:24 17° 88° (E) 21:46:05 435.910
DELFI C3 22 Jan 21:47:34 21:51:01 27° 265° (W) 21:54:29 145.870
UNISAT 6 22 Jan 21:47:41 21:51:47 34° 97° (E) 21:55:55 437.425
BY70-1 22 Jan 21:51:53 21:54:44 35° 72° (ENE) 21:57:45 436.1900
TIGRISAT 22 Jan 22:00:05 22:04:20 43° 99° (E) 22:08:40 435.000
ESTCUBE 1 22 Jan 22:07:39 22:11:45 35° 69° (ENE) 22:15:54 437.505/2401.250
HUMSAT D 22 Jan 22:09:15 22:12:53 30° 264° (W) 22:16:33 437.325/437.525
VELOX 1 22 Jan 22:09:31 22:11:56 15° 62° (ENE) 22:14:20 145.980
AO-85 22 Jan 22:11:42 22:15:37 80° 238° (WSW) 22:19:31 145.980
PRISM 22 Jan 22:12:26 22:16:17 39° 289° (WNW) 22:20:05 437.425
GONETS M04 22 Jan 22:15:18 22:20:12 16° 303° (WNW) 22:25:09
ANTELSAT 22 Jan 22:15:53 22:20:21 68° 102° (ESE) 22:24:53 437.575/2403.000
SPROUT 22 Jan 22:19:11 22:20:56 12° 62° (ENE) 22:22:42 437.525
DX 1 22 Jan 22:33:27 22:35:19 13° 61° (ENE) 22:37:09 434.975-435.025
QB50P1 22 Jan 22:44:31 22:46:24 13° 90° (E) 22:48:18 145.935-145.965
CUBEBUG 1 22 Jan 22:46:51 22:51:08 53° 73° (ENE) 22:55:25 437.445
POLYITAN 1 22 Jan 22:49:07 22:51:31 15° 92° (E) 22:53:53 437.675
QB50P2 22 Jan 22:50:14 22:52:54 16° 92° (E) 22:55:33 145.880/145.840
50 SAT 22 Jan 22:55:29 22:58:29 26° 70° (ENE) 23:01:31 437.505
RS-15 22 Jan 23:01:17 23:12:53 65° 115° (ESE) 23:24:57 29.354- 29.394
PCSat 22 Jan 23:07:03 23:10:56 20° 106° (ESE) 23:14:50 145.827
AISAT 22 Jan 23:10:15 23:14:38 62° 74° (ENE) 23:19:02 437.250
POPSAT HIP 1 22 Jan 23:10:24 23:13:52 24° 95° (E) 23:17:20 437.405
ISS 22 Jan 23:12:46 23:15:32 24° 342° (NNW) 23:18:16 145.825
DUCHIFAT 1 22 Jan 23:17:47 23:21:16 25° 95° (E) 23:24:45 145.980
JAS-2 22 Jan 23:19:49 23:27:09 85° 104° (ESE) 23:35:00 435.910
BY70-1 22 Jan 23:24:08 23:25:12 11° 270° (W) 23:26:17 436.1900
NANOSAT C BR1 22 Jan 23:24:32 23:28:21 32° 97° (E) 23:32:08 145.865
UNISAT 6 22 Jan 23:24:44 23:28:19 24° 293° (WNW) 23:31:58 437.425
AIST 1 22 Jan 23:28:19 23:30:01 12° 67° (ENE) 23:31:43
BEESAT 3 22 Jan 23:28:33 23:31:53 24° 46° (NE) 23:35:11 437.485
TISAT 1 22 Jan 23:37:28 23:39:20 13° 62° (ENE) 23:41:11 437.305
TIGRISAT 22 Jan 23:37:32 23:40:44 20° 295° (WNW) 23:44:00 435.000
YUBILEINY 22 Jan 23:38:54 23:45:52 25° 64° (ENE) 23:52:44 435.215
BUGSAT 1 22 Jan 23:42:04 23:44:37 16° 93° (E) 23:47:10 437.445
VELOX 1 22 Jan 23:43:29 23:47:53 61° 258° (WSW) 23:52:17 145.980
ESTCUBE 1 22 Jan 23:44:59 23:48:37 23° 266° (W) 23:52:17 437.505/2401.250
SPROUT 22 Jan 23:52:05 23:56:18 67° 258° (WSW) 00:00:33 437.525
ANTELSAT 22 Jan 23:54:21 23:56:32 13° 298° (WNW) 23:58:43 437.575/2403.000
UKube-1 23 Jan 00:00:14 00:04:32 73° 75° (ENE) 00:08:52 .
DX 1 23 Jan 00:06:34 00:10:55 71° 258° (WSW) 00:15:17 434.975-435.025
QB50P1 23 Jan 00:18:22 00:22:32 57° 286° (WNW) 00:26:39 145.935-145.965
BEESAT 2 23 Jan 00:19:02 00:22:44 34° 49° (NE) 00:26:26 435.950
POLYITAN 1 23 Jan 00:23:28 00:27:34 49° 287° (WNW) 00:31:40 437.675
QB50P2 23 Jan 00:24:52 00:28:55 44° 288° (WNW) 00:32:57 145.880/145.840
CUBEBUG 1 23 Jan 00:25:13 00:27:43 15° 269° (W) 00:30:13 437.445
50 SAT 23 Jan 00:29:00 00:31:41 20° 266° (W) 00:34:22 437.505
Cosmos 2491 23 Jan 00:31:21 00:37:49 24° 80° (E) 00:44:17 435.465 / 435.565
PHONESAT 2.4 23 Jan 00:40:32 00:42:01 16° 158° (SSE) 00:43:29 2401.200-2431.200
POPSAT HIP 1 23 Jan 00:45:57 00:49:38 30° 291° (WNW) 00:53:19 437.405
PCSat 23 Jan 00:48:31 00:53:51 59° 304° (NW) 00:59:14 145.827
AISAT 23 Jan 00:49:30 00:51:29 13° 270° (W) 00:53:28 437.250
ISS 23 Jan 00:50:35 00:52:48 17° 2° (N) 00:55:01 145.825
DUCHIFAT 1 23 Jan 00:53:18 00:56:55 28° 291° (WNW) 01:00:32 145.980
NANOSAT C BR1 23 Jan 01:00:36 01:03:53 22° 293° (WNW) 01:07:10 145.865
ITUPSAT 1 23 Jan 01:01:23 01:05:04 23° 64° (ENE) 01:08:45 437.325
AIST 1 23 Jan 01:03:51 01:08:04 60° 265° (W) 01:12:14
BEESAT 3 23 Jan 01:05:54 01:09:34 35° 244° (WSW) 01:13:12 437.485
Cosmos 2504 23 Jan 01:05:56 01:12:49 40° 73° (ENE) 01:19:28 435.465 / 435.565
JAS-2 23 Jan 01:06:11 01:11:25 22° 301° (WNW) 01:16:56 435.910
TISAT 1 23 Jan 01:10:19 01:14:26 62° 258° (WSW) 01:18:35 437.305
RS-15 23 Jan 01:14:34 01:26:02 47° 320° (NW) 01:37:53 29.354- 29.394
BUGSAT 1 23 Jan 01:16:21 01:20:10 41° 289° (WNW) 01:23:59 437.445
Oscar 19 23 Jan 01:26:33 01:31:39 56° 101° (E) 01:36:42 437.125/150
BEESAT 23 Jan 01:33:06 01:37:37 45° 70° (ENE) 01:42:10 436.000
YUBILEINY 23 Jan 01:34:47 01:43:36 76° 266° (W) 01:52:19 435.215
SWISSCUBE 23 Jan 01:34:56 01:39:33 53° 71° (ENE) 01:44:12 437.505
UKube-1 23 Jan 01:40:21 01:41:03 10° 271° (W) 01:41:46 .
CUSAT 1 23 Jan 01:46:03 01:50:11 21° 80° (E) 01:55:01 437.405
BEESAT 2 23 Jan 01:57:05 02:00:23 24° 246° (WSW) 02:03:39 435.950
Gurwin Techsat 1B 23 Jan 02:02:50 02:08:09 66° 101° (ESE) 02:13:25 435.225
PHONESAT 2.4 23 Jan 02:13:25 02:15:33 41° 175° (S) 02:17:41 2401.200-2431.200
ITAMSAT 1 23 Jan 02:16:39 02:20:07 18° 92° (E) 02:23:34 435.822/435.867
Cosmos 2491 23 Jan 02:25:02 02:33:43 74° 280° (W) 02:42:29 435.465 / 435.565
ISS 23 Jan 02:27:03 02:30:00 31° 22° (NNE) 02:32:58 145.825
PCSat 23 Jan 02:36:00 02:38:25 13° 325° (NW) 02:40:52 145.827
ITUPSAT 1 23 Jan 02:38:08 02:42:37 42° 261° (W) 02:47:10 437.325
MOZHAYETS 4 23 Jan 02:40:52 02:45:23 65° 74° (ENE) 02:49:59
AIST 2 23 Jan 02:41:46 02:45:19 25° 45° (NE) 02:48:52 435.215
M-CUBED/EXP-1 PRIME 23 Jan 02:42:53 02:46:54 41° 67° (ENE) 02:50:40 437.505
AO-7 23 Jan 02:51:26 02:58:37 31° 96° (E) 03:05:43 29.400- 29.500
Cosmos 2504 23 Jan 02:59:32 03:06:04 36° 274° (W) 03:12:26 435.465 / 435.565
KKS-1 23 Jan 03:00:25 03:04:26 34° 69° (ENE) 03:08:27 437.445
DANDE 23 Jan 03:04:39 03:08:01 23° 84° (E) 03:12:12 436.750
Oscar 19 23 Jan 03:06:52 03:10:32 20° 298° (WNW) 03:14:10 437.125/150
BEESAT 23 Jan 03:12:10 03:15:37 20° 267° (W) 03:19:05 436.000
SWISSCUBE 23 Jan 03:14:34 03:17:39 17° 268° (W) 03:20:44 437.505
AUBIESAT-1 23 Jan 03:16:52 03:21:04 80° 72° (ENE) 03:25:00 437.475
CUSAT 1 23 Jan 03:25:49 03:31:12 61° 285° (WNW) 03:38:09 437.405
RS-15 23 Jan 03:33:00 03:42:46 26° 353° (N) 03:52:35 29.354- 29.394
CUBESAT XI-V 23 Jan 03:34:32 03:38:51 37° 70° (ENE) 03:43:12 437.345
YUBILEINY 23 Jan 03:34:34 03:38:45 14° 286° (WNW) 03:42:57 435.215
Gurwin Techsat 1B 23 Jan 03:44:02 03:47:33 18° 299° (WNW) 03:51:04 435.225
STARS 23 Jan 03:45:20 03:49:31 46° 71° (ENE) 03:53:42 437.465
PHONESAT 2.4 23 Jan 03:47:09 03:49:13 34° 190° (S) 03:51:17 2401.200-2431.200
ITAMSAT 1 23 Jan 03:54:50 03:59:58 59° 288° (WNW) 04:05:05 435.822/435.867
ISS 23 Jan 04:03:28 04:06:33 41° 220° (SW) 04:09:37 145.825
M-CUBED/EXP-1 PRIME 23 Jan 04:18:27 04:21:27 18° 260° (W) 04:24:20 437.505
AIST 2 23 Jan 04:19:57 04:23:54 38° 244° (WSW) 04:27:49 435.215
MOZHAYETS 4 23 Jan 04:20:56 04:23:00 13° 271° (W) 04:25:04
Cosmos 2491 23 Jan 04:27:28 04:32:18 16° 303° (WNW) 04:37:10 435.465 / 435.565
BRITE-PL 23 Jan 04:28:07 04:32:14 28° 93° (E) 04:36:04 437.365/2234.400
GONETS M04 23 Jan 04:28:41 04:31:54 12° 53° (NE) 04:35:07
KKS-1 23 Jan 04:37:30 04:41:03 23° 265° (W) 04:44:36 437.445
AO-7 23 Jan 04:43:36 04:51:49 62° 295° (WNW) 04:59:57 29.400- 29.500
DANDE 23 Jan 04:46:31 04:50:23 33° 292° (WNW) 04:55:27 436.750
STRAND 1 23 Jan 04:56:50 04:57:42 10° 56° (NE) 04:58:33 437.568
Cosmos 2499 23 Jan 05:11:00 05:16:26 23° 66° (ENE) 05:21:48 435.465 / 435.565
CUBESAT XI-V 23 Jan 05:12:33 05:16:19 24° 267° (W) 05:20:06 437.345
CUSAT 1 23 Jan 05:13:17 05:15:05 11° 309° (NW) 05:16:57 437.405
PHONESAT 2.4 23 Jan 05:22:05 05:22:39 11° 206° (SSW) 05:23:12 2401.200-2431.200
STARS 23 Jan 05:23:17 05:26:06 17° 268° (W) 05:28:53 437.465
CUTE-I 23 Jan 05:27:07 05:30:55 20° 92° (E) 05:34:43 437.470
HORYU 2 23 Jan 05:35:55 05:40:21 61° 101° (ESE) 05:44:46 437.375
O/OREOS (USA 219) 23 Jan 05:45:19 05:49:44 66° 110° (ESE) 05:54:11 437.305
RS-15 23 Jan 05:49:28 06:00:27 34° 28° (NNE) 06:11:11 29.354- 29.394
GOMX 1 23 Jan 05:54:38 05:59:02 87° 104° (ESE) 06:03:13 467.674
BRITE-PL 23 Jan 06:06:32 06:10:42 29° 293° (WNW) 06:14:35 437.365/2234.400
NOAA 15 23 Jan 06:08:35 06:13:43 47° 99° (E) 06:18:48 137.62
Cubesat XI-IV 23 Jan 06:10:20 06:15:29 47° 99° (E) 06:20:38 437.490
DOVE 4 23 Jan 06:18:20 06:22:28 58° 100° (E) 06:26:33 437.250
GONETS M04 23 Jan 06:22:13 06:30:58 60° 77° (ENE) 06:39:39
LilacSat-2 23 Jan 06:23:10 06:27:04 83° 102° (ESE) 06:30:57 437.200
STRAND 1 23 Jan 06:30:54 06:35:58 75° 74° (ENE) 06:41:05 437.568
AO-7 23 Jan 06:38:31 06:42:56 16° 316° (NW) 06:47:21 29.400- 29.500
NOAA 18 23 Jan 06:39:01 06:44:16 46° 100° (E) 06:49:29 137.9125
SO-50 23 Jan 06:43:07 06:47:26 37° 116° (ESE) 06:51:44 436.795
CANX-2 23 Jan 06:47:20 06:50:18 18° 92° (E) 06:53:15 2200.000
SEEDS 23 Jan 06:53:15 06:54:42 11° 89° (E) 06:56:09 437.485
HO-68 23 Jan 06:58:44 07:04:52 29° 95° (E) 07:10:56 435.675
Cosmos 2499 23 Jan 07:03:10 07:10:11 65° 267° (W) 07:17:10 435.465 / 435.565
CUTE-I 23 Jan 07:06:05 07:11:17 56° 289° (WNW) 07:16:30 437.470
HORYU 2 23 Jan 07:13:55 07:16:25 15° 298° (WNW) 07:18:53 437.375
CINEMA 3 23 Jan 07:24:39 07:28:51 71° 102° (ESE) 07:33:11 145.822/145.860
O/OREOS (USA 219) 23 Jan 07:27:03 07:29:37 15° 308° (NW) 07:32:12 437.305
PRISM 23 Jan 07:28:36 07:31:00 15° 63° (ENE) 07:33:25 437.425
NOAA 15 23 Jan 07:48:59 07:53:11 24° 297° (WNW) 07:57:21 137.62
Cubesat XI-IV 23 Jan 07:51:02 07:55:16 24° 296° (WNW) 07:59:29 437.490
CUTE 1.7 + AOD 2 23 Jan 07:52:07 07:56:27 80° 103° (ESE) 08:00:43 437.475
PCSat 23 Jan 07:52:50 07:57:09 23° 45° (NE) 08:01:26 145.827
DOVE 4 23 Jan 07:57:50 07:59:40 13° 298° (WNW) 08:01:31 437.250
CUBEBUG 2 23 Jan 07:58:41 08:02:49 39° 98° (E) 08:07:02 437.445
RS-15 23 Jan 08:02:36 08:15:04 83° 56° (ENE) 08:27:01 29.354- 29.394
FUNcube-1 23 Jan 08:08:07 08:11:10 18° 92° (E) 08:14:14 145.935
STRAND 1 23 Jan 08:13:20 08:15:42 13° 271° (W) 08:18:05 437.568
GONETS M04 23 Jan 08:19:49 08:27:13 31° 277° (W) 08:34:37
NOAA 18 23 Jan 08:20:14 08:24:40 26° 297° (WNW) 08:29:05 137.9125
UWE-3 23 Jan 08:20:30 08:24:42 43° 98° (E) 08:29:00 435.000/436.395/437.385
CANX-2 23 Jan 08:22:16 08:26:19 41° 288° (WNW) 08:30:21 2200.000
SO-50 23 Jan 08:23:48 08:27:58 31° 314° (NW) 08:32:05 436.795
COMPASS 1 23 Jan 08:25:54 08:30:09 84° 103° (ESE) 08:34:20 437.405
SEEDS 23 Jan 08:26:35 08:30:48 63° 286° (WNW) 08:34:59 437.485
ZACube-1 23 Jan 08:32:17 08:36:20 35° 97° (E) 08:40:28 437.345
AAUSAT CUBESAT 2 23 Jan 08:33:58 08:38:11 79° 104° (ESE) 08:42:20 437.432
HO-68 23 Jan 08:45:55 08:52:53 55° 293° (WNW) 08:59:49 435.675
UNISAT 6 23 Jan 08:47:28 08:51:13 31° 69° (ENE) 08:55:00 437.425
TIGRISAT 23 Jan 08:59:35 09:03:32 39° 71° (ENE) 09:07:30 435.000
PRISM 23 Jan 09:01:49 09:05:52 51° 260° (W) 09:09:57 437.425
Oscar 11 23 Jan 09:02:42 09:07:02 61° 100° (E) 09:11:21 145.826/435.025
CINEMA 3 23 Jan 09:04:06 09:05:28 11° 298° (WNW) 09:06:52 145.822/145.860
ANTELSAT 23 Jan 09:15:22 09:19:33 62° 74° (ENE) 09:23:47 437.575/2403.000
DELFI C3 23 Jan 09:23:32 09:27:11 33° 97° (E) 09:30:46 145.870
CUTE 1.7 + AOD 2 23 Jan 09:30:38 09:31:37 11° 299° (WNW) 09:32:36 437.475
JAS-2 23 Jan 09:34:01 09:38:59 37° 65° (ENE) 09:44:28 435.910
PCSat 23 Jan 09:35:37 09:41:00 63° 244° (WSW) 09:46:20 145.827
CUBEBUG 2 23 Jan 09:35:57 09:39:12 21° 293° (WNW) 09:42:30 437.445
QB50P1 23 Jan 09:38:39 09:40:00 11° 61° (ENE) 09:41:22 145.935-145.965
POLYITAN 1 23 Jan 09:43:14 09:45:09 13° 62° (ENE) 09:47:04 437.675
FUNcube-1 23 Jan 09:43:23 09:47:35 44° 288° (WNW) 09:51:50 145.935
QB50P2 23 Jan 09:44:14 09:46:29 14° 63° (ENE) 09:48:44 145.880/145.840
HUMSAT D 23 Jan 09:51:04 09:55:07 39° 98° (E) 09:59:09 437.325/437.525
UWE-3 23 Jan 09:57:44 10:00:53 19° 294° (WNW) 10:04:04 435.000/436.395/437.385
POPSAT HIP 1 23 Jan 10:03:54 10:07:00 21° 66° (ENE) 10:10:08 437.405
ZACube-1 23 Jan 10:08:56 10:12:27 23° 293° (WNW) 10:15:59 437.345
DUCHIFAT 1 23 Jan 10:10:36 10:13:43 21° 66° (ENE) 10:16:51 145.980
AAUSAT CUBESAT 2 23 Jan 10:12:22 10:12:59 10° 299° (WNW) 10:13:36 437.432
RS-15 23 Jan 10:16:29 10:26:07 29° 259° (WSW) 10:35:31 29.354- 29.394
NANOSAT C BR1 23 Jan 10:17:25 10:20:56 27° 68° (ENE) 10:24:27 145.865
UNISAT 6 23 Jan 10:24:36 10:27:58 23° 266° (W) 10:31:22 437.425
BY70-1 23 Jan 10:26:02 10:28:09 16° 93° (E) 10:30:11 436.1900
BUGSAT 1 23 Jan 10:33:23 10:35:19 13° 63° (ENE) 10:37:16 437.445
HO-68 23 Jan 10:36:51 10:39:04 12° 313° (NW) 10:41:16 435.675
TIGRISAT 23 Jan 10:37:26 10:40:23 18° 267° (W) 10:43:21 435.000
Oscar 11 23 Jan 10:40:25 10:42:39 14° 298° (WNW) 10:44:53 145.826/435.025
Cosmos 2491 23 Jan 10:40:53 10:44:02 12° 53° (NE) 10:47:09 435.465 / 435.565
ANTELSAT 23 Jan 10:55:15 10:56:41 11° 271° (W) 10:58:08 437.575/2403.000
DELFI C3 23 Jan 10:58:51 11:01:45 20° 293° (WNW) 11:04:38 145.870
AISAT 23 Jan 11:02:13 11:03:12 11° 89° (E) 11:04:12 437.250
Oscar 19 23 Jan 11:08:28 11:10:38 13° 58° (ENE) 11:12:48 437.125/150
QB50P1 23 Jan 11:11:01 11:15:11 71° 258° (WSW) 11:19:24 145.935-145.965
POLYITAN 1 23 Jan 11:16:18 11:20:26 61° 259° (W) 11:24:35 437.675
QB50P2 23 Jan 11:17:42 11:21:49 55° 260° (W) 11:25:58 145.880/145.840
JAS-2 23 Jan 11:19:25 11:24:10 31° 267° (W) 11:29:23 435.910
HUMSAT D 23 Jan 11:27:19 11:30:27 20° 294° (WNW) 11:33:35 437.325/437.525
VELOX 1 23 Jan 11:33:15 11:36:45 23° 94° (E) 11:40:13 145.980
ESTCUBE 1 23 Jan 11:35:27 11:39:59 69° 101° (E) 11:44:29 437.505/2401.250
SPROUT 23 Jan 11:37:48 11:40:52 19° 93° (E) 11:43:55 437.525
POPSAT HIP 1 23 Jan 11:38:43 11:42:33 35° 262° (W) 11:46:25 437.405
DUCHIFAT 1 23 Jan 11:45:24 11:49:12 34° 263° (W) 11:53:01 145.980
Gurwin Techsat 1B 23 Jan 11:47:32 11:50:41 16° 59° (ENE) 11:53:50 435.225
UKube-1 23 Jan 11:48:59 11:50:09 11° 90° (E) 11:51:18 .
50 SAT 23 Jan 11:53:03 11:56:03 25° 96° (E) 11:59:00 437.505
NANOSAT C BR1 23 Jan 11:53:03 11:56:35 26° 264° (W) 12:00:07 145.865
DX 1 23 Jan 11:54:50 11:57:52 18° 93° (E) 12:00:52 434.975-435.025
BY70-1 23 Jan 11:55:49 11:58:24 22° 291° (WNW) 12:00:50 436.1900
AO-7 23 Jan 12:05:40 12:08:06 12° 39° (NE) 12:10:32 29.400- 29.500
BUGSAT 1 23 Jan 12:06:17 12:10:15 54° 260° (W) 12:14:13 437.445
CUBEBUG 1 23 Jan 12:10:35 12:14:57 84° 283° (WNW) 12:19:15 437.445
CUSAT 1 23 Jan 12:16:51 12:23:01 24° 62° (ENE) 12:28:47 437.405
AO-85 23 Jan 12:26:38 12:30:39 28° 115° (ESE) 12:34:26 145.980
AISAT 23 Jan 12:35:46 12:40:09 72° 287° (WNW) 12:44:30 437.250
